TimeEDT,TemperatureF,Dew PointF,Humidity,Sea Level PressureIn,VisibilityMPH,Wind Direction,Wind SpeedMPH,Gust SpeedMPH,PrecipitationIn,Events,Conditions,WindDirDegrees,DateUTC
12:15 AM,50.0,17.6,28,30.04,10.0,Calm,Calm,-,N/A,,Clear,0,2013-04-07 04:15:00
12:35 AM,48.2,19.4,32,30.04,10.0,Calm,Calm,-,N/A,,Clear,0,2013-04-07 04:35:00
12:55 AM,51.8,19.4,28,30.03,10.0,SSE,4.6,-,N/A,,Scattered Clouds,160,2013-04-07 04:55:00
1:15 AM,53.6,19.4,26,30.03,10.0,South,5.8,-,N/A,,Mostly Cloudy,180,2013-04-07 05:15:00
1:35 AM,53.6,21.2,28,30.03,10.0,South,6.9,-,N/A,,Mostly Cloudy,170,2013-04-07 05:35:00
1:55 AM,53.6,24.8,33,30.03,10.0,South,9.2,-,N/A,,Mostly Cloudy,170,2013-04-07 05:55:00
2:15 AM,53.6,26.6,35,30.02,10.0,South,9.2,-,N/A,,Partly Cloudy,170,2013-04-07 06:15:00
2:35 AM,55.4,26.6,33,30.01,10.0,South,8.1,-,N/A,,Partly Cloudy,170,2013-04-07 06:35:00
2:55 AM,55.4,28.4,36,30.00,10.0,South,11.5,18.4,N/A,,Clear,180,2013-04-07 06:55:00
3:15 AM,55.4,28.4,36,30.00,10.0,South,12.7,19.6,N/A,,Clear,170,2013-04-07 07:15:00
3:35 AM,55.4,28.4,36,29.99,10.0,South,11.5,-,N/A,,Clear,180,2013-04-07 07:35:00
3:55 AM,55.4,28.4,36,29.99,10.0,South,10.4,18.4,N/A,,Clear,170,2013-04-07 07:55:00
4:15 AM,55.4,28.4,36,29.99,10.0,South,10.4,16.1,N/A,,Clear,190,2013-04-07 08:15:00
4:35 AM,55.4,28.4,36,29.99,10.0,South,9.2,-,N/A,,Clear,180,2013-04-07 08:35:00
4:55 AM,55.4,28.4,36,29.99,10.0,South,10.4,16.1,N/A,,Clear,180,2013-04-07 08:55:00
5:15 AM,55.4,28.4,36,29.99,10.0,South,10.4,-,N/A,,Clear,180,2013-04-07 09:15:00
5:35 AM,55.4,28.4,36,29.98,10.0,South,11.5,18.4,N/A,,Clear,180,2013-04-07 09:35:00
5:55 AM,55.4,28.4,36,29.98,10.0,South,9.2,-,N/A,,Clear,180,2013-04-07 09:55:00
6:15 AM,53.6,28.4,38,29.98,10.0,South,11.5,-,N/A,,Clear,190,2013-04-07 10:15:00
6:35 AM,55.4,28.4,36,29.98,10.0,South,11.5,16.1,N/A,,Clear,190,2013-04-07 10:35:00
6:55 AM,53.6,28.4,38,29.98,10.0,South,9.2,-,N/A,,Clear,180,2013-04-07 10:55:00
7:15 AM,53.6,28.4,38,29.98,10.0,South,6.9,-,N/A,,Clear,190,2013-04-07 11:15:00
7:35 AM,53.6,28.4,38,29.98,10.0,South,6.9,-,N/A,,Clear,190,2013-04-07 11:35:00
7:55 AM,53.6,30.2,41,29.98,10.0,South,8.1,-,N/A,,Clear,190,2013-04-07 11:55:00
8:15 AM,55.4,30.2,38,29.98,10.0,South,10.4,-,N/A,,Clear,190,2013-04-07 12:15:00
8:35 AM,57.2,30.2,36,29.98,10.0,SSW,11.5,25.3,N/A,,Clear,200,2013-04-07 12:35:00
8:55 AM,57.2,32.0,38,29.98,10.0,SSW,12.7,23.0,N/A,,Clear,200,2013-04-07 12:55:00
9:15 AM,60.8,32.0,34,29.97,10.0,SSW,12.7,25.3,N/A,,Clear,200,2013-04-07 13:15:00
9:35 AM,62.6,33.8,34,29.97,10.0,SW,19.6,26.5,N/A,,Scattered Clouds,220,2013-04-07 13:35:00
9:55 AM,62.6,33.8,34,29.97,10.0,SSW,16.1,29.9,N/A,,Mostly Cloudy,210,2013-04-07 13:55:00
10:15 AM,62.6,33.8,34,29.97,10.0,SW,23.0,27.6,N/A,,Scattered Clouds,230,2013-04-07 14:15:00
10:35 AM,62.6,33.8,34,29.97,10.0,SW,17.3,28.8,N/A,,Mostly Cloudy,230,2013-04-07 14:35:00
10:55 AM,64.4,35.6,34,29.97,10.0,SW,17.3,28.8,N/A,,Mostly Cloudy,220,2013-04-07 14:55:00
11:15 AM,64.4,35.6,34,29.97,10.0,SW,17.3,25.3,N/A,,Overcast,230,2013-04-07 15:15:00
11:35 AM,64.4,37.4,37,29.97,10.0,SW,20.7,31.1,N/A,,Mostly Cloudy,230,2013-04-07 15:35:00
11:55 AM,66.2,37.4,35,29.97,10.0,SW,19.6,33.4,N/A,,Mostly Cloudy,220,2013-04-07 15:55:00
12:15 PM,66.2,37.4,35,29.97,10.0,SW,21.9,29.9,N/A,,Mostly Cloudy,230,2013-04-07 16:15:00
12:35 PM,66.2,37.4,35,29.96,10.0,WSW,20.7,28.8,N/A,,Overcast,240,2013-04-07 16:35:00
12:55 PM,66.2,37.4,35,29.95,10.0,SW,13.8,18.4,N/A,,Mostly Cloudy,230,2013-04-07 16:55:00
1:15 PM,69.8,39.2,33,29.95,10.0,SW,17.3,25.3,N/A,,Mostly Cloudy,230,2013-04-07 17:15:00
1:35 PM,68.0,39.2,35,29.95,10.0,SSW,16.1,23.0,N/A,,Overcast,210,2013-04-07 17:35:00
1:55 PM,66.2,39.2,37,29.95,10.0,WSW,15.0,24.2,N/A,,Overcast,240,2013-04-07 17:55:00
2:15 PM,71.6,39.2,31,29.94,10.0,WSW,19.6,26.5,N/A,,Overcast,240,2013-04-07 18:15:00
2:35 PM,69.8,39.2,33,29.94,10.0,North,-9999.0,-,N/A,,Mostly Cloudy,0,2013-04-07 18:35:00
2:55 PM,69.8,39.2,33,-9999,10.0,North,-9999.0,-,N/A,,Mostly Cloudy,0,2013-04-07 18:55:00
3:15 PM,68.0,39.2,35,29.94,10.0,WSW,12.7,24.2,N/A,,Overcast,250,2013-04-07 19:15:00
3:35 PM,69.8,41.0,35,29.94,10.0,WSW,12.7,18.4,N/A,,Overcast,250,2013-04-07 19:35:00
3:55 PM,69.8,41.0,35,29.94,10.0,SW,12.7,23.0,N/A,,Overcast,230,2013-04-07 19:55:00
4:15 PM,69.8,41.0,35,29.94,10.0,North,-9999.0,-,N/A,,Overcast,0,2013-04-07 20:15:00
4:35 PM,68.0,42.8,40,29.94,10.0,SW,17.3,26.5,N/A,,Mostly Cloudy,230,2013-04-07 20:35:00
4:55 PM,69.8,42.8,38,29.95,10.0,SW,10.4,20.7,N/A,,Mostly Cloudy,230,2013-04-07 20:55:00
5:15 PM,69.8,42.8,38,29.95,10.0,WSW,16.1,23.0,N/A,,Overcast,240,2013-04-07 21:15:00
5:35 PM,68.0,42.8,40,29.96,10.0,WSW,17.3,21.9,N/A,,Overcast,240,2013-04-07 21:35:00
5:55 PM,68.0,42.8,40,29.96,10.0,WSW,13.8,17.3,N/A,,Mostly Cloudy,240,2013-04-07 21:55:00
6:15 PM,68.0,42.8,40,29.97,10.0,WSW,15.0,18.4,N/A,Thunderstorm,Overcast,250,2013-04-07 22:15:00
6:35 PM,66.2,44.6,46,29.98,10.0,SW,13.8,24.2,N/A,,Overcast,230,2013-04-07 22:35:00
6:55 PM,64.4,44.6,49,29.97,10.0,SSW,5.8,-,N/A,,Partly Cloudy,210,2013-04-07 22:55:00
7:15 PM,62.6,44.6,52,29.98,10.0,SSW,5.8,-,N/A,,Clear,210,2013-04-07 23:15:00
7:35 PM,62.6,44.6,52,29.99,10.0,SSW,5.8,-,N/A,,Clear,210,2013-04-07 23:35:00
7:55 PM,60.8,44.6,55,29.99,10.0,SSW,5.8,-,N/A,,Mostly Cloudy,210,2013-04-07 23:55:00
8:15 PM,60.8,44.6,55,30.00,10.0,SSW,4.6,-,N/A,,Mostly Cloudy,200,2013-04-08 00:15:00
8:35 PM,57.2,46.4,67,30.00,10.0,SSW,4.6,-,N/A,,Partly Cloudy,210,2013-04-08 00:35:00
8:55 PM,57.2,46.4,67,30.01,10.0,SW,4.6,-,N/A,,Clear,220,2013-04-08 00:55:00
9:15 PM,57.2,46.4,67,30.01,10.0,SSW,5.8,-,N/A,,Clear,200,2013-04-08 01:15:00
9:35 PM,57.2,46.4,67,30.02,10.0,SSW,5.8,-,N/A,,Clear,200,2013-04-08 01:35:00
9:55 PM,57.2,46.4,67,30.02,10.0,SW,6.9,-,N/A,,Clear,220,2013-04-08 01:55:00
10:15 PM,59.0,46.4,63,30.02,10.0,SW,6.9,-,N/A,,Clear,220,2013-04-08 02:15:00
10:35 PM,59.0,46.4,63,30.02,10.0,SW,5.8,-,N/A,,Partly Cloudy,220,2013-04-08 02:35:00
10:55 PM,57.2,46.4,67,30.04,10.0,WNW,6.9,-,N/A,,Mostly Cloudy,290,2013-04-08 02:55:00
11:15 PM,59.0,46.4,63,30.04,10.0,WSW,5.8,-,N/A,,Mostly Cloudy,250,2013-04-08 03:15:00
11:35 PM,57.2,44.6,63,30.04,10.0,North,5.8,-,N/A,,Partly Cloudy,350,2013-04-08 03:35:00
11:55 PM,55.4,42.8,63,30.04,10.0,North,6.9,-,N/A,,Clear,360,2013-04-08 03:55:00